CW6747 Weather Reports


Display with metric or nautical units.
time (UTC)temp
F
wind
direction
speed
MPH
gust
MPH
rain 1hr
in
rain 24hr
in
rain mn
in
humidity
%
barometer
mb
20260903151547 76 291 9.0 16.0 0.00 0.17 0.05 78 1016.4
20260903150034 75 321 5.0 12.0 0.00 0.17 0.05 82 1016.5
20260903144535 74 313 4.0 10.0 0.01 0.19 0.05 81 1016.4
20260903143037 74 288 4.0 9.0 0.01 0.19 0.05 82 1016.0
20260903141535 72 29 2.0 7.0 0.01 0.19 0.05 85 1016.2
20260903140034 70 305 6.0 18.0 0.01 0.19 0.05 88 1016.2
20260903134535 69 254 10.0 18.0 0.00 0.20 0.04 88 1016.5
20260903133037 68 304 9.0 16.0 0.00 0.20 0.04 90 1017.1
20260903131534 67 262 6.0 15.0 0.00 0.20 0.04 91 1017.3
20260903130036 66 289 9.0 17.0 0.01 0.20 0.04 93 1017.9
20260903124539 67 297 11.0 23.0 0.01 0.20 0.04 94 1018.9
20260903123031 67 348 8.0 14.0 0.01 0.20 0.04 94 1018.6
20260903121536 67 289 3.0 9.0 0.01 0.20 0.04 94 1017.5
20260903120034 67 303 2.0 6.0 0.00 0.19 0.03 94 1016.9
20260903114533 67 294 5.0 9.0 0.00 0.19 0.03 94 1017.1
20260903113032 67 301 4.0 8.0 0.00 0.19 0.03 95 1017.2
20260903111557 67 342 3.0 7.0 0.00 0.19 0.03 95 1017.0
20260903110038 66 279 5.0 10.0 0.01 0.19 0.03 95 1016.7
20260903104540 66 360 3.0 7.0 0.01 0.19 0.03 95 1016.6
20260903103034 66 287 3.0 9.0 0.01 0.19 0.03 96 1016.2
20260903101534 65 307 1.0 3.0 0.01 0.19 0.03 97 1016.0
20260903100037 66 0 0.0 3.0 0.00 0.18 0.02 97 1015.6
20260903094532 66 148 0.0 3.0 0.00 0.18 0.02 97 1015.9
20260903093041 66 148 0.0 2.0 0.00 0.18 0.02 97 1017.0
20260903091534 66 207 0.0 1.0 0.01 0.18 0.02 97 1017.7
20260903090035 66 207 0.0 5.0 0.01 0.18 0.02 97 1018.3
20260903084536 66 52 0.0 3.0 0.01 0.18 0.02 97 1018.6
20260903083034 66 0 0.0 2.0 0.01 0.18 0.02 96 1018.2
20260903081535 66 0 0.0 2.0 0.00 0.17 0.01 96 1018.0
20260903080034 66 0 0.0 5.0 0.00 0.17 0.01 96 1018.2
20260903074537 66 346 2.0 6.0 0.00 0.17 0.01 96 1018.0
20260903073043 66 0 1.0 4.0 0.00 0.17 0.01 96 1017.5
20260903071533 66 173 3.0 10.0 0.01 0.17 0.01 96 1017.7
20260903070042 66 75 2.0 9.0 0.01 0.17 0.01 96 1017.5
20260903064533 66 274 3.0 6.0 0.01 0.44 0.01 96 1017.6
20260903063032 66 105 4.0 8.0 0.01 0.44 0.01 95 1016.0
20260903061553 67 288 0.0 4.0 0.00 0.43 0.00 95 1017.4
20260903060036 67 246 2.0 6.0 0.00 0.43 0.00 93 1018.6
20260903054535 68 181 3.0 10.0 0.00 1.05 0.00 91 1017.4
20260903053035 68 98 3.0 10.0 0.00 1.05 0.00 91 1017.6
20260903051537 70 92 4.0 8.0 0.00 1.05 0.00 87 1016.5
20260903050039 70 0 2.0 7.0 0.00 1.05 0.00 86 1016.4
20260903044530 70 111 2.0 7.0 0.00 1.05 0.00 87 1016.2
20260903043039 71 171 2.0 7.0 0.00 1.05 0.00 86 1016.4
20260903041539 70 79 1.0 3.0 0.00 1.05 0.00 88 1017.0
20260903040034 70 97 2.0 8.0 0.01 1.05 0.00 87 1016.6
20260903034530 70 113 2.0 12.0 0.01 1.05 1.05 86 1016.9
20260903033033 73 90 7.0 13.0 0.01 1.05 1.05 81 1017.5
20260903031534 73 106 4.0 11.0 0.01 1.05 1.05 82 1017.5
20260903030105 75 94 3.0 13.0 0.00 1.04 1.04 86 1017.8
20260903024537 75 115 0.0 3.0 0.00 1.04 1.04 84 1017.6
20260903023038 75 355 1.0 5.0 0.00 1.04 1.04 84 1016.4
20260903021537 76 344 3.0 6.0 0.00 1.04 1.04 81 1016.1
20260903020037 75 259 5.0 13.0 0.00 1.04 1.04 83 1015.3
20260903014535 76 0 1.0 9.0 0.00 1.04 1.04 83 1015.7
20260903013043 76 248 3.0 13.0 0.00 1.04 1.04 83 1015.4
20260903011533 76 141 5.0 13.0 0.01 1.04 1.04 83 1015.6
20260903010036 76 244 4.0 20.0 0.01 1.04 1.04 84 1015.1
20260903004536 76 240 5.0 13.0 0.01 1.04 1.04 85 1015.4
20260903003039 76 325 2.0 13.0 0.01 1.04 1.04 86 1016.1
20260903001534 76 284 6.0 14.0 0.00 1.04 1.04 86 1015.8
20260903000038 76 75 2.0 9.0 0.00 1.04 1.04 85 1016.1
20260902234534 76 0 0.0 5.0 0.00 1.04 1.04 86 1016.4
20260902233033 77 69 1.0 3.0 0.00 1.04 1.04 86 1016.2
20260902231543 77 51 1.0 5.0 0.01 1.04 1.04 84 1015.5
20260902230035 78 0 0.0 6.0 0.01 1.04 1.04 83 1015.4
20260902224551 78 161 1.0 7.0 0.01 1.04 1.04 83 1015.7
20260902223043 79 182 3.0 8.0 0.01 1.04 1.04 83 1016.0
20260902221543 79 198 3.0 8.0 0.00 1.03 1.03 82 1016.4
20260902220051 79 174 3.0 10.0 0.00 1.03 1.03 84 1016.3
20260902214537 80 178 2.0 8.0 0.00 1.03 1.03 83 1016.5
20260902213039 81 200 3.0 7.0 0.00 1.03 1.03 80 1016.6
20260902211535 82 259 2.0 6.0 0.01 1.03 1.03 76 1016.7
20260902210044 81 270 2.0 8.0 0.01 1.03 1.03 76 1016.9
20260902204535 81 0 2.0 8.0 0.01 1.03 1.03 84 1017.0
20260902203039 80 150 2.0 5.0 0.01 1.03 1.03 81 1016.8
20260902201543 80 87 2.0 4.0 0.00 1.02 1.02 83 1016.8
20260902200038 80 157 0.0 4.0 0.01 1.02 1.02 84 1017.0
20260902194536 80 138 2.0 6.0 0.01 1.02 1.02 84 1017.1
20260902193041 79 88 1.0 5.0 0.01 1.02 1.02 80 1017.5
20260902191534 80 0 1.0 3.0 0.02 1.02 1.02 82 1017.3
20260902190037 78 173 1.0 4.0 0.01 1.01 1.01 85 1017.3
20260902184534 78 0 0.0 3.0 0.01 1.01 1.01 85 1017.3
20260902183039 76 75 1.0 3.0 0.02 1.01 1.01 89 1017.5
20260902181534 74 293 1.0 3.0 0.01 1.00 1.00 89 1017.7
20260902180036 72 335 3.0 5.0 0.02 1.00 1.00 92 1018.0
20260902174534 71 286 3.0 5.0 0.02 1.00 1.00 95 1018.0
20260902173038 70 323 3.0 8.0 0.01 0.99 0.99 95 1018.3
20260902171542 70 290 0.0 2.0 0.02 0.99 0.99 95 1019.3
20260902170034 69 278 0.0 5.0 0.01 0.98 0.98 95 1019.5
20260902164537 69 173 1.0 3.0 0.02 0.98 0.98 96 1019.4
20260902163037 68 0 0.0 2.0 0.03 0.98 0.98 96 1019.1
20260902161536 68 275 2.0 4.0 0.02 0.97 0.97 95 1019.4
20260902160036 68 53 1.0 5.0 0.03 0.97 0.97 95 1019.1
20260902154533 68 158 1.0 6.0 0.02 0.96 0.96 95 1019.1
20260902153046 69 182 1.0 4.0 0.02 0.95 0.95 94 1019.7